Volver al catálogo

STARLINK-34327

ActivoComunicacionesVLEO
NORAD 64208·PAYLOAD·🇺🇸 United States

Lanzado May 31, 2025 desde Vandenberg Space Force Base

Loading…

Próximos Pases (próximas 24 horas)

TLE

ActualizadoSource: CelesTrak SupGP

Época: Sep 15, 2026, 02:42 UTC

1 64208C 25117F   26258.11298611 -.00041783  00000+0 -12343-2 0  2585
2 64208  53.1582 238.7863 0001389  93.9124 167.5545 15.34415009    18

Sigue STARLINK-34327 en tiempo real con AllMySat

Download on the App Store